Time,TemperatureF,DewpointF,PressureIn,WindDirection,WindDirectionDegrees,WindSpeedMPH,WindSpeedGustMPH,Humidity,HourlyPrecipIn,Conditions,Clouds,dailyrainin,SolarRadiationWatts/m^2,SoftwareType,DateUTC
2013-02-03 00:14:00,11.7,7.8,29.37,North,355,0.0,0.0,84,0.00,,,0.00,0,Wunderground v.1.15,2013-02-03 06:14:00,
2013-02-03 01:18:00,12.3,8.1,29.34,North,355,0.0,0.0,83,0.00,,,0.00,0,Wunderground v.1.15,2013-02-03 07:18:00,
2013-02-03 01:28:00,12.5,8.3,29.34,North,355,0.0,0.0,83,0.00,,,0.00,0,Wunderground v.1.15,2013-02-03 07:28:00,
2013-02-03 01:48:00,12.6,8.1,29.34,North,355,1.0,1.0,82,0.00,,,0.00,0,Wunderground v.1.15,2013-02-03 07:48:00,
2013-02-03 02:33:00,12.7,8.8,29.33,North,355,1.0,1.0,84,0.00,,,0.00,0,Wunderground v.1.15,2013-02-03 08:33:00,
2013-02-03 02:48:00,12.8,9.1,29.32,North,351,1.0,2.0,85,0.00,,,0.00,0,Wunderground v.1.15,2013-02-03 08:48:00,
2013-02-03 03:08:00,12.8,9.7,29.31,North,351,1.0,1.0,87,0.00,,,0.00,0,Wunderground v.1.15,2013-02-03 09:08:00,
2013-02-03 04:32:00,13.2,10.6,29.30,NW,326,1.0,1.0,89,0.00,,,0.00,0,Wunderground v.1.15,2013-02-03 10:32:00,
2013-02-03 05:07:00,13.7,11.1,29.30,WSW,240,1.0,1.0,89,0.00,,,0.00,0,Wunderground v.1.15,2013-02-03 11:07:00,
2013-02-03 05:14:00,13.7,11.1,29.30,WSW,240,2.0,2.0,89,0.00,,,0.00,0,Wunderground v.1.15,2013-02-03 11:14:00,
2013-02-03 06:14:00,14.7,12.3,29.31,SW,232,2.0,2.0,90,0.00,,,0.00,0,Wunderground v.1.15,2013-02-03 12:14:00,
2013-02-03 07:33:00,15.7,13.8,29.32,SW,234,1.0,1.0,92,0.00,,,0.00,9,Wunderground v.1.15,2013-02-03 13:33:00,
2013-02-03 08:28:00,17.1,15.4,29.32,SW,234,1.0,1.0,93,0.00,,,0.00,56,Wunderground v.1.15,2013-02-03 14:28:00,
2013-02-03 08:38:00,17.5,15.8,29.32,SW,234,1.0,2.0,93,0.00,,,0.00,51,Wunderground v.1.15,2013-02-03 14:38:00,
2013-02-03 08:48:00,17.7,16.0,29.32,WSW,257,2.0,3.0,93,0.00,,,0.00,54,Wunderground v.1.15,2013-02-03 14:48:00,
2013-02-03 08:58:00,18.0,16.3,29.32,WSW,257,2.0,2.0,93,0.00,,,0.00,83,Wunderground v.1.15,2013-02-03 14:58:00,
2013-02-03 09:13:00,19.1,17.7,29.32,WSW,257,0.0,1.0,94,0.00,,,0.00,127,Wunderground v.1.15,2013-02-03 15:13:00,
2013-02-03 09:28:00,19.9,18.2,29.32,WSW,258,1.0,1.0,93,0.00,,,0.00,141,Wunderground v.1.15,2013-02-03 15:28:00,
2013-02-03 09:43:00,20.8,19.1,29.33,WSW,258,1.0,2.0,93,0.00,,,0.00,178,Wunderground v.1.15,2013-02-03 15:43:00,
2013-02-03 10:02:00,22.2,20.5,29.33,WSW,252,1.0,2.0,93,0.00,,,0.00,207,Wunderground v.1.15,2013-02-03 16:02:00,
2013-02-03 10:18:00,22.4,20.2,29.33,WNW,302,1.0,2.0,91,0.00,,,0.00,246,Wunderground v.1.15,2013-02-03 16:18:00,
2013-02-03 10:28:00,22.7,19.9,29.34,WNW,297,2.0,2.0,89,0.00,,,0.00,257,Wunderground v.1.15,2013-02-03 16:28:00,
2013-02-03 10:38:00,23.0,19.4,29.34,South,191,1.0,2.0,86,0.00,,,0.00,309,Wunderground v.1.15,2013-02-03 16:38:00,
2013-02-03 10:48:00,23.4,19.6,29.34,WNW,284,1.0,1.0,85,0.00,,,0.00,294,Wunderground v.1.15,2013-02-03 16:48:00,
2013-02-03 10:53:00,23.3,19.5,29.33,WNW,286,1.0,1.0,85,0.00,,,0.00,343,Wunderground v.1.15,2013-02-03 16:53:00,
2013-02-03 11:08:00,24.3,19.9,29.34,NW,306,1.0,1.0,83,0.00,,,0.00,654,Wunderground v.1.15,2013-02-03 17:08:00,
2013-02-03 12:28:00,24.8,18.6,29.35,WSW,257,2.0,2.0,77,0.00,,,0.00,543,Wunderground v.1.15,2013-02-03 18:28:00,
2013-02-03 12:53:00,25.7,19.5,29.36,SW,231,2.0,2.0,77,0.00,,,0.00,592,Wunderground v.1.15,2013-02-03 18:53:00,
2013-02-03 13:23:00,27.1,20.5,29.37,WSW,246,2.0,2.0,76,0.00,,,0.00,591,Wunderground v.1.15,2013-02-03 19:23:00,
2013-02-03 13:43:00,25.4,20.4,29.36,WNW,297,1.0,2.0,81,0.00,,,0.00,243,Wunderground v.1.15,2013-02-03 19:43:00,
2013-02-03 13:58:00,25.8,19.3,29.37,WSW,239,2.0,3.0,76,0.00,,,0.00,311,Wunderground v.1.15,2013-02-03 19:58:00,
2013-02-03 14:12:00,25.7,19.2,29.37,West,271,2.0,3.0,76,0.00,,,0.00,207,Wunderground v.1.15,2013-02-03 20:12:00,
2013-02-03 14:27:00,25.6,18.8,29.38,WSW,245,2.0,2.0,75,0.00,,,0.00,151,Wunderground v.1.15,2013-02-03 20:27:00,
2013-02-03 14:42:00,25.6,18.8,29.38,SW,233,2.0,3.0,75,0.00,,,0.00,144,Wunderground v.1.15,2013-02-03 20:42:00,
2013-02-03 15:44:00,24.9,17.5,29.39,West,259,2.0,4.0,73,0.00,,,0.00,70,Wunderground v.1.15,2013-02-03 21:44:00,
2013-02-03 16:28:00,24.8,17.4,29.38,West,261,1.0,2.0,73,0.00,,,0.00,53,Wunderground v.1.15,2013-02-03 22:28:00,
2013-02-03 16:45:00,24.4,17.6,29.38,West,273,1.0,2.0,75,0.00,,,0.00,26,Wunderground v.1.15,2013-02-03 22:45:00,
2013-02-03 17:25:00,23.3,16.9,29.38,West,279,1.0,3.0,76,0.00,,,0.00,0,Wunderground v.1.15,2013-02-03 23:25:00,
2013-02-03 17:49:00,22.7,16.6,29.37,West,279,1.0,1.0,77,0.00,,,0.00,0,Wunderground v.1.15,2013-02-03 23:49:00,
2013-02-03 19:19:00,23.5,18.8,29.38,West,279,0.0,0.0,82,0.00,,,0.00,0,Wunderground v.1.15,2013-02-04 01:19:00,
2013-02-03 19:29:00,23.7,19.3,29.38,West,279,1.0,1.0,83,0.00,,,0.00,0,Wunderground v.1.15,2013-02-04 01:29:00,
2013-02-03 20:34:00,24.7,20.6,29.39,West,279,1.0,1.0,84,0.00,,,0.00,0,Wunderground v.1.15,2013-02-04 02:34:00,
2013-02-03 20:44:00,24.8,20.7,29.39,West,274,1.0,1.0,84,0.00,,,0.00,0,Wunderground v.1.15,2013-02-04 02:44:00,
2013-02-03 21:33:00,25.2,21.0,29.40,West,263,2.0,2.0,84,0.00,,,0.00,0,Wunderground v.1.15,2013-02-04 03:33:00,
2013-02-03 21:43:00,25.3,21.1,29.40,West,261,2.0,3.0,84,0.00,,,0.00,0,Wunderground v.1.15,2013-02-04 03:43:00,
2013-02-03 21:53:00,25.2,20.8,29.40,WSW,253,2.0,4.0,83,0.00,,,0.00,0,Wunderground v.1.15,2013-02-04 03:53:00,
2013-02-03 22:03:00,25.2,20.5,29.40,WSW,256,2.0,4.0,82,0.00,,,0.00,0,Wunderground v.1.15,2013-02-04 04:03:00,
2013-02-03 22:14:00,25.1,20.9,29.40,West,263,2.0,3.0,84,0.00,,,0.00,0,Wunderground v.1.15,2013-02-04 04:14:00,
2013-02-03 22:23:00,24.9,21.0,29.39,West,263,1.0,2.0,85,0.00,,,0.00,0,Wunderground v.1.15,2013-02-04 04:23:00,
2013-02-03 22:33:00,24.8,20.9,29.39,West,263,0.0,1.0,85,0.00,,,0.00,0,Wunderground v.1.15,2013-02-04 04:33:00,
2013-02-03 22:43:00,24.8,21.2,29.39,West,263,0.0,0.0,86,0.00,,,0.00,0,Wunderground v.1.15,2013-02-04 04:43:00,
2013-02-03 23:03:00,24.8,21.2,29.38,West,263,0.0,0.0,86,0.00,,,0.00,0,Wunderground v.1.15,2013-02-04 05:03:00,
2013-02-03 23:14:00,24.8,21.5,29.38,West,263,0.0,0.0,87,0.00,,,0.00,0,Wunderground v.1.15,2013-02-04 05:14:00,
2013-02-03 23:38:00,24.8,21.2,29.37,West,263,0.0,0.0,86,0.00,,,0.00,0,Wunderground v.1.15,2013-02-04 05:38:00,